This demonstration page uses our WeatherBlox Daily Observations layout. Learn more.

Left ArrowRight Arrow

Hourly Observations for June 27, 2017

Temp ( °F °C ) Dew Point ( °F °C ) Humidity (%) Winds ( mph kmh ) Pressure ( in mb ) Visibility ( mi km ) Precip ( " mm )
12:56 am 00:56 Clear 54 12.1 51 10.3 89 89 Calm 30.15 1021 10 16 0.00 0.00
1:56 am 01:56 Clear 53 11.6 50 10.2 91 91 E 3 6 30.14 1021 10 16 0.00 0.00
2:56 am 02:56 Clear 51 10.7 49 9.5 92 92 E 3 6 30.14 1021 10 16 0.00 0.00
3:56 am 03:56 Clear 52 11 49 9.7 92 92 E 3 6 30.12 1020 10 16 0.00 0.00
4:56 am 04:56 Clear 51 10.4 49 9.3 93 93 E 3 6 30.11 1020 10 16 0.00 0.00
5:56 am 05:56 Sunny 49 9.3 47 8.5 95 95 E 5 7 30.11 1020 10 16 0.00 0.00
6:56 am 06:56 Sunny 54 12.2 51 10.3 88 88 E 3 6 30.10 1019 10 16 0.00 0.00
7:56 am 07:56 Sunny 60 15.4 52 11.2 76 76 ESE 8 13 30.11 1020 10 16 0.00 0.00
8:56 am 08:56 Sunny 64 17.6 56 13.3 76 76 SE 6 9 30.10 1019 10 16 0.00 0.00
9:56 am 09:56 Sunny 68 20 58 14.6 71 71 SE 9 15 30.07 1018 10 16 0.00 0.00
10:56 am 10:56 Sunny 72 22.2 59 14.8 63 63 SE 14 22 30.05 1018 10 16 0.00 0.00
11:26 am 11:26 Mostly Sunny 73 23 59 15 61 61 ESE 15 24 30.04 1017 10 16 0.00 0.00
11:56 am 11:56 Mostly Sunny 74 23.4 59 14.9 59 59 SE 15 24 30.01 1016 10 16 0.00 0.00
12:56 pm 12:56 Sunny 76 24.3 58 14.7 55 55 SE 17 28 30.00 1016 10 16 0.00 0.00
1:56 pm 13:56 Sunny 78 25.4 60 15.7 55 55 SE 13 20 29.97 1015 10 16 0.00 0.00
2:56 pm 14:56 Sunny 79 26.3 61 15.9 53 53 SSE 18 30 29.93 1014 10 16 0.00 0.00
3:56 pm 15:56 Sunny 80 26.6 62 16.8 55 55 SE 16 26 29.90 1013 10 16 0.00 0.00
4:56 pm 16:56 Sunny 81 27.2 63 17.3 55 55 SSE 18 30 29.87 1011 10 16 0.00 0.00
5:56 pm 17:56 Partly Cloudy 79 25.9 64 17.5 60 60 SE 23 37 29.83 1010 10 16 0.00 0.00
6:56 pm 18:56 Sunny 79 26.3 65 18.2 61 61 SSE 15 24 29.81 1009 10 16 0.00 0.00
7:56 pm 19:56 Mostly Cloudy 78 25.3 65 18.2 65 65 SE 17 28 29.80 1009 10 16 0.00 0.00
8:56 pm 20:56 Mostly Cloudy 77 24.9 65 18.3 67 67 ESE 15 24 29.76 1008 10 16 0.00 0.00
9:56 pm 21:56 Cloudy 76 24.7 65 18.6 69 69 SE 15 24 29.77 1008 10 16 0.00 0.00
10:56 pm 22:56 Clear 74 23.6 65 18.5 73 73 ESE 15 24 29.77 1008 10 16 0.00 0.00
11:56 pm 23:56 Clear 75 23.7 65 18.3 72 72 SE 18 30 29.75 1007 10 16 0.00 0.00

Powered by AerisWeather